Regional Weather Roundup
Issued by NWS Newport/Morehead, NC

Current Version | Previous Version | Text Only | Print | Product List | Glossary Off
Versions: 1 2 3 4 5 6 7 8 9 10 11 12 13 14 15 16 17 18 19 20 21 22 23 24 25 26 27 28 29 30 31 32 33 34 35 36 37 38 39 40 41 42 43 44 45 46 47 48 49 50
000 ASUS42 KMHX 271522 RWRMHX WEATHER ROUNDUP FOR EASTERN NORTH CAROLINA NATIONAL WEATHER SERVICE NEWPORT/MOREHEAD CITY NC 1100 AM EDT WED AUG 27 2014 NOTE: "FAIR" INDICATES FEW OR NO CLOUDS BELOW 12,000 FEET WITH NO SIGNIFICANT WEATHER AND/OR OBSTRUCTIONS TO VISIBILITY NCZ015>017-031-032-045>047-102-103-271600- NORTH COAST CITY SKY/WX TMP DP RH WIND PRES REMARKS EDENTON PTSUNNY 80 70 72 NE7 30.03F ELIZABETH CITY PTSUNNY 81 70 69 NE14 30.03S KITTY HAWK SUNNY 79 73 80 NE9G16 30.00F MANTEO CLOUDY 79 72 80 N16G23 30.01S $$ NCZ045>047-081-094-103-104-271600- CENTRAL COAST CITY SKY/WX TMP DP RH WIND PRES REMARKS FRISCO MOSUNNY 80 74 81 N10G20 29.98R SWANQUARTER N/A 81 N/A N/A N9G17 29.97S $$ NCZ095-097-098-100-101-271600- SOUTHERN COAST CITY SKY/WX TMP DP RH WIND PRES REMARKS BEAUFORT CLOUDY 79 72 79 N17 29.99S CEDAR ISLAND N/A 81 N/A N/A N14G22 30.03S JACKSONVILLE SUNNY 78 67 68 N9 30.01F NEWPORT NOT AVBL PINEY ISLAND MOSUNNY 81 74 79 N16G26 29.99S WILMINGTON SUNNY 79 68 69 N12 30.01S $$ NCZ011>013-027>030-043-044-078>080-089-090>093-098-271600- COASTAL PLAIN CITY SKY/WX TMP DP RH WIND PRES REMARKS AHOSKIE SUNNY 74 66 74 N8 30.06S CLINTON SUNNY 77 67 71 N6 30.06R ELIZABETHTOWN SUNNY 79 64 60 N5 30.04S GOLDSBORO SUNNY 75 70 83 N8 30.04S GREENVILLE PTSUNNY 77 70 78 N8 30.06F HAVELOCK PTSUNNY 79 70 74 N13 30.01F KENANSVILLE SUNNY 77 65 66 N7 30.05S KINSTON MOSUNNY 77 68 73 N10 30.05S NEW BERN PTSUNNY 81 70 69 N10 30.03S RICHLANDS SUNNY 79 66 65 N7 30.02F ROANOKE RAPIDS NOT AVBL ROCKY MOUNT SUNNY 75 63 66 N9 30.07S WASHINGTON SUNNY 78 69 74 N10 30.03F WHITEVILLE SUNNY 78 64 61 NE7 30.03S $$ AMZ130-135-150-152-154-156-158-170-250-252-270-ANZ085-086-088-633-658-670-271600- MARINE OBSERVATIONS STATION/POSITION TIME TEMP WIND PRES WAVE SWELL AIR SEA DIR/SP/G HT/PER HT/PER (UTC) (F) (DEG/KT/KT) (MB) (FT/S) (FT/S) CHESAPEAKE LIGHT 1500 73 30/ 17/ 18 1017.9 BUOY 44014 1500 77 78 40/ 17/ 19 1015.7 7/13 5/13 DUCK 1500 74 76 10/ 18/ 19 1015.8 2E DUCK 1500 N/A 6/13 3/13 OREGON INLET 1500 78 77 10/ 14/ 20 1015.8 BUOY 44095 1500 76 N/A 7/10 3/11 20E OREGON INLET NOT AVBL HATTERAS CG 1500 77 78 20/ 22/ 25 1015.3 DIAMOND BUOY 1500 78 360/ 21/ 27 1013.4 9/ 8 7/12 CAPE LOOKOUT 1500 78 10/ 17/ 22 1015.0 BEAUFORT LAB 1500 78 78 10/ 14/ 19 1015.0 30 SE NEW RIVER 1500 77 80 10/ 19/ 23 1015.1 7/ 8 3/13 5 SE WRIGHTSVILL 1500 73 80 10/ 16/ 19 N/A BUOY 41002 1432 79 81 350/ 23/ 29 1008.1 13/11 7/11 BUOY 41004 1500 79 83 10/ 17/ 19 1015.0 6/10 5/10 $$

USA.gov is the U.S. government's official web portal to all federal, state and local government web resources and services.